TimeMST,TemperatureF,Dew PointF,Humidity,Sea Level PressureIn,VisibilityMPH,Wind Direction,Wind SpeedMPH,Gust SpeedMPH,PrecipitationIn,Events,Conditions,WindDirDegrees,DateUTC
12:52 AM,30.9,15.1,52,30.04,10.0,South,6.9,-,N/A,,Clear,180,2012-12-01 07:52:00
1:52 AM,28.9,14.0,54,30.01,10.0,SSW,8.1,-,N/A,,Clear,200,2012-12-01 08:52:00
2:52 AM,27.0,14.0,58,30.03,10.0,WNW,4.6,-,N/A,,Clear,300,2012-12-01 09:52:00
3:52 AM,23.0,12.9,65,30.06,10.0,NNE,4.6,-,N/A,,Clear,20,2012-12-01 10:52:00
4:52 AM,21.0,12.0,68,30.11,10.0,NE,8.1,-,N/A,,Clear,40,2012-12-01 11:52:00
5:52 AM,17.1,10.0,74,30.22,10.0,NNE,3.5,-,N/A,,Clear,20,2012-12-01 12:52:00
6:52 AM,12.9,8.1,81,30.27,10.0,West,4.6,-,N/A,,Clear,260,2012-12-01 13:52:00
7:52 AM,16.0,10.0,77,30.27,10.0,Calm,Calm,-,N/A,,Clear,0,2012-12-01 14:52:00
8:52 AM,30.9,16.0,54,30.17,10.0,WSW,3.5,-,N/A,,Clear,240,2012-12-01 15:52:00
9:52 AM,43.0,19.0,38,30.12,10.0,SE,4.6,-,N/A,,Clear,130,2012-12-01 16:52:00
10:52 AM,46.9,19.0,33,30.10,10.0,East,3.5,-,N/A,,Clear,100,2012-12-01 17:52:00
11:52 AM,48.9,19.0,31,30.06,10.0,Calm,Calm,-,N/A,,Clear,0,2012-12-01 18:52:00
12:52 PM,51.1,18.0,27,30.05,10.0,Calm,Calm,-,N/A,,Clear,0,2012-12-01 19:52:00
1:52 PM,53.1,18.0,25,30.03,10.0,SSE,6.9,-,N/A,,Clear,160,2012-12-01 20:52:00
2:52 PM,54.0,17.1,23,30.02,10.0,Variable,5.8,-,N/A,,Clear,0,2012-12-01 21:52:00
3:52 PM,53.1,17.1,24,30.06,10.0,East,5.8,-,N/A,,Clear,100,2012-12-01 22:52:00
4:52 PM,42.1,16.0,35,30.13,10.0,East,8.1,-,N/A,,Clear,80,2012-12-01 23:52:00
5:52 PM,37.9,17.1,43,30.19,10.0,SE,8.1,-,N/A,,Clear,140,2012-12-02 00:52:00
6:52 PM,33.1,17.1,52,30.25,10.0,SW,5.8,-,N/A,,Clear,230,2012-12-02 01:52:00
7:52 PM,26.1,15.1,63,30.30,10.0,South,5.8,-,N/A,,Clear,180,2012-12-02 02:52:00
8:52 PM,28.0,15.1,58,30.21,10.0,Variable,3.5,-,N/A,,Clear,0,2012-12-02 03:52:00
9:52 PM,27.0,16.0,63,30.17,10.0,Calm,Calm,-,N/A,,Clear,0,2012-12-02 04:52:00
10:52 PM,25.0,16.0,69,30.18,10.0,East,8.1,-,N/A,,Clear,80,2012-12-02 05:52:00
11:52 PM,25.0,16.0,69,30.16,10.0,East,5.8,-,N/A,,Clear,80,2012-12-02 06:52:00